User: anonymous   Login
Location: Long Point Provincial Park
(42.5794°N, 80.4103°W)
Time: 17:10:07
(UTC-04:00)
Language:

Iridium 19 - Orbit

View from above orbital plane
View from above orbital plane
View from above satellite
View from above satellite

Ground track
Ground track

The orbit data is extracted from the following two-line orbital elements,

1 24965U 97056A   15182.18119070  .00000196  00000-0  63016-4 0  9993
2 24965 086.3968 258.3764 0002312 094.1334 266.0126 14.34218185929780
Epoch (UTC): 01 July 2015 04:20:54
Eccentricity: 0.0002312
inclination: 86.3968°
perigee height: 776 km
apogee height: 779 km
right ascension of ascending node: 258.3764°
argument of perigee: 94.1334°
revolutions per day: 14.34218185
mean anomaly at epoch: 266.0126°
orbit number at epoch: 92978

The dashed part of the orbit path shows where the satellite is in the earth's shadow,  

DLR